FW2951 Weather Reports


time (UTC)temp
C
wind
direction
speed
KPH
gust
KPH
rain 1hr
cm
rain 24hr
cm
rain mn
cm
humidity
%
barometer
mb
20260510204558 23 0 0.0 0.0 0.00 0.00 0.00 65 1015.1
20260510204047 22 0 0.0 0.0 0.00 0.00 0.00 65 1014.9
20260510203544 22 0 0.0 0.0 0.00 0.00 0.00 67 1015.0
20260510203044 22 0 0.0 1.6 0.00 0.00 0.00 71 1015.0
20260510202544 22 0 0.0 1.6 0.00 0.00 0.00 67 1015.0
20260510202040 22 0 0.0 0.0 0.00 0.00 0.00 66 1014.7
20260510201601 22 0 0.0 0.0 0.00 0.00 0.00 67 1015.0
20260510201044 23 0 0.0 0.0 0.00 0.00 0.00 63 1015.0
20260510200541 23 0 0.0 0.0 0.00 0.00 0.00 67 1015.2
20260510200118 23 0 0.0 0.0 0.00 0.00 0.00 65 1015.2
20260510195546 23 0 0.0 0.0 0.00 0.00 0.00 68 1015.3
20260510195044 22 0 0.0 0.0 0.00 0.00 0.00 71 1015.4
20260510194554 22 0 0.0 0.0 0.00 0.00 0.00 80 1015.4
20260510194044 21 0 0.0 0.0 0.00 0.00 0.00 77 1015.4
20260510193545 21 0 0.0 0.0 0.00 0.00 0.00 73 1015.5
20260510193100 21 0 0.0 0.0 0.00 0.00 0.00 73 1015.5
20260510192542 20 0 0.0 0.0 0.00 0.00 0.00 83 1015.5
20260510192044 20 0 0.0 0.0 0.00 0.00 0.00 77 1015.7
20260510191605 20 0 0.0 0.0 0.00 0.00 0.00 76 1015.7
20260510191045 21 0 0.0 0.0 0.00 0.00 0.00 75 1015.7
20260510190544 21 0 0.0 0.0 0.00 0.00 0.00 69 1015.8
20260510190100 21 0 0.0 0.0 0.00 0.00 0.00 70 1015.7
20260510185541 22 0 0.0 0.0 0.00 0.00 0.00 69 1015.6
20260510185046 22 0 0.0 1.6 0.00 0.00 0.00 66 1015.5
20260510184556 22 0 0.0 1.6 0.00 0.00 0.00 66 1015.5
20260510184046 22 0 0.0 3.2 0.00 0.00 0.00 67 1015.3
20260510183546 22 0 0.0 3.2 0.00 0.00 0.00 63 1015.4
20260510183049 23 0 0.0 3.2 0.00 0.00 0.00 61 1015.4
20260510182547 24 0 0.0 0.0 0.00 0.00 0.00 62 1015.4
20260510182044 24 0 0.0 1.6 0.00 0.00 0.00 63 1015.4
20260510181558 23 0 0.0 8.0 0.00 0.00 0.00 64 1015.3
20260510181044 24 0 0.0 8.0 0.00 0.00 0.00 62 1015.3
20260510180544 24 0 0.0 8.0 0.00 0.00 0.00 63 1015.3
20260510180048 24 0 0.0 4.8 0.00 0.00 0.00 61 1015.4
20260510175541 24 0 0.0 3.2 0.00 0.00 0.00 63 1015.3
20260510175044 24 0 0.0 3.2 0.00 0.00 0.00 63 1015.2
20260510174552 25 0 0.0 3.2 0.00 0.00 0.00 61 1015.1
20260510174044 24 0 0.0 1.6 0.00 0.00 0.00 61 1015.2
20260510173540 24 0 0.0 1.6 0.00 0.00 0.00 63 1015.3
20260510173050 24 0 0.0 0.0 0.00 0.00 0.00 62 1015.2
20260510172545 23 0 0.0 0.0 0.00 0.00 0.00 68 1015.3
20260510172045 23 0 0.0 0.0 0.00 0.00 0.00 61 1015.3
20260510171552 23 0 0.0 0.0 0.00 0.00 0.00 64 1015.3
20260510171043 22 0 0.0 0.0 0.00 0.00 0.00 65 1015.2
20260510170544 21 0 0.0 0.0 0.00 0.00 0.00 69 1015.4
20260510170057 20 0 0.0 0.0 0.00 0.00 0.00 70 1015.5
20260510165544 20 0 0.0 0.0 0.00 0.00 0.00 73 1015.6
20260510165048 20 0 0.0 0.0 0.00 0.00 0.00 75 1015.6
20260510164556 21 0 0.0 0.0 0.00 0.00 0.00 69 1015.6
20260510164041 21 0 0.0 0.0 0.00 0.00 0.00 67 1015.5
20260510163542 22 0 0.0 0.0 0.00 0.00 0.00 65 1015.5
20260510163053 22 0 0.0 0.0 0.00 0.00 0.00 62 1015.3
20260510162540 23 0 0.0 0.0 0.00 0.00 0.00 59 1015.3
20260510162043 22 0 0.0 0.0 0.00 0.00 0.00 66 1015.4
20260510161551 21 0 0.0 0.0 0.00 0.00 0.00 64 1015.4
20260510161041 22 0 0.0 0.0 0.00 0.00 0.00 62 1015.4
20260510160544 22 0 0.0 0.0 0.00 0.00 0.00 61 1015.4
20260510155544 21 0 0.0 0.0 0.00 0.00 0.00 66 1015.5
20260510155045 22 0 0.0 0.0 0.00 0.00 0.00 63 1015.4
20260510154556 22 0 0.0 0.0 0.00 0.00 0.00 66 1015.4
20260510154044 22 0 0.0 0.0 0.00 0.00 0.00 65 1015.4
20260510153544 22 0 0.0 0.0 0.00 0.00 0.00 65 1015.4
20260510153054 21 0 0.0 0.0 0.00 0.00 0.00 63 1015.5
20260510152547 22 0 0.0 1.6 0.00 0.00 0.00 62 1015.4
20260510152042 22 0 0.0 1.6 0.00 0.00 0.00 61 1015.3
20260510151551 22 0 0.0 1.6 0.00 0.00 0.00 61 1015.2
20260510151041 22 0 0.0 1.6 0.00 0.00 0.00 61 1015.2
20260510150543 21 0 0.0 4.8 0.00 0.00 0.00 62 1015.1
20260510150055 21 0 0.0 9.7 0.00 0.00 0.00 61 1014.9
20260510145549 21 0 0.0 9.7 0.00 0.00 0.00 62 1015.1
20260510145048 21 0 0.0 8.0 0.00 0.00 0.00 62 1015.2
20260510144555 21 0 0.0 8.0 0.00 0.00 0.00 62 1015.3
20260510144045 21 0 0.0 8.0 0.00 0.00 0.00 65 1015.4
20260510143548 21 0 0.0 8.0 0.00 0.00 0.00 63 1015.4
20260510143053 21 0 0.0 17.7 0.00 0.00 0.00 65 1015.2
20260510142544 21 0 0.0 17.7 0.00 0.00 0.00 64 1015.1
20260510142044 20 0 0.0 17.7 0.00 0.00 0.00 64 1015.2
20260510141558 20 0 0.0 11.3 0.00 0.00 0.00 66 1015.1
20260510141044 20 239 0.0 9.7 0.00 0.00 0.00 65 1015.1
20260510140542 20 0 0.0 1.6 0.00 0.00 0.00 64 1015.1
20260510140055 20 0 0.0 0.0 0.00 0.00 0.00 70 1015.2
20260510135544 20 0 0.0 0.0 0.00 0.00 0.00 68 1015.3
20260510135043 19 0 0.0 0.0 0.00 0.00 0.00 68 1015.4
20260510134605 18 0 0.0 0.0 0.00 0.00 0.00 71 1015.5
20260510134046 19 0 0.0 0.0 0.00 0.00 0.00 67 1015.4
20260510133548 19 0 0.0 0.0 0.00 0.00 0.00 70 1015.4
20260510133058 19 0 0.0 0.0 0.00 0.00 0.00 66 1015.4
20260510132545 19 0 0.0 0.0 0.00 0.00 0.00 69 1015.2
20260510132048 18 0 0.0 0.0 0.00 0.00 0.00 69 1015.2
20260510131556 18 0 0.0 0.0 0.00 0.00 0.00 71 1015.2
20260510131044 18 0 0.0 0.0 0.00 0.00 0.00 70 1015.2
20260510130544 18 0 0.0 0.0 0.00 0.00 0.00 69 1015.1
20260510130056 18 0 0.0 0.0 0.00 0.00 0.00 71 1015.1
20260510125543 18 0 0.0 0.0 0.00 0.00 0.00 71 1015.0
20260510125041 17 0 0.0 0.0 0.00 0.00 0.00 73 1015.0
20260510124559 17 0 0.0 0.0 0.00 0.00 0.00 71 1015.1
20260510124045 17 0 0.0 1.6 0.00 0.00 0.00 73 1015.1
20260510123543 17 0 0.0 6.4 0.00 0.00 0.00 75 1015.0
20260510123102 17 0 0.0 11.3 0.00 0.00 0.00 75 1015.0
20260510122545 17 213 0.0 11.3 0.00 0.00 0.00 73 1014.9
20260510122044 17 0 0.0 11.3 0.00 0.00 0.00 73 1014.7
20260510121553 17 0 0.0 0.0 0.00 0.00 0.00 75 1014.8
20260510121044 16 0 0.0 0.0 0.00 0.00 0.00 77 1014.8
20260510120542 16 0 0.0 0.0 0.00 0.00 0.00 80 1014.8
20260510120052 16 0 0.0 1.6 0.00 0.00 0.00 81 1014.9
20260510115544 16 0 0.0 1.6 0.00 0.00 0.00 83 1014.7
20260510115042 15 0 0.0 1.6 0.00 0.00 0.00 86 1014.7
20260510114553 15 0 0.0 0.0 0.00 0.00 0.00 87 1014.5
20260510114044 14 0 0.0 0.0 0.00 0.00 0.00 89 1014.6
20260510113541 13 0 0.0 0.0 0.00 0.00 0.00 90 1014.5
20260510113056 13 0 0.0 0.0 0.00 0.00 0.00 91 1014.4
20260510112542 13 0 0.0 0.0 0.00 0.00 0.00 93 1014.4
20260510112042 12 0 0.0 0.0 0.00 0.00 0.00 93 1014.3
20260510111554 12 0 0.0 0.0 0.00 0.00 0.00 92 1014.2
20260510111044 12 0 0.0 0.0 0.00 0.00 0.00 92 1014.1
20260510110544 12 0 0.0 0.0 0.00 0.00 0.00 92 1014.0
20260510110052 11 0 0.0 0.0 0.00 0.00 0.00 91 1013.9
20260510105544 11 0 0.0 0.0 0.00 0.00 0.00 91 1013.9
20260510105045 11 0 0.0 0.0 0.00 0.00 0.00 91 1013.8
20260510104548 11 0 0.0 0.0 0.00 0.00 0.00 91 1013.7
20260510104044 11 0 0.0 0.0 0.00 0.00 0.00 91 1013.7
20260510103547 11 0 0.0 0.0 0.00 0.00 0.00 90 1013.6
20260510103058 11 0 0.0 0.0 0.00 0.00 0.00 90 1013.5
20260510102545 11 0 0.0 0.0 0.00 0.00 0.00 90 1013.4
20260510102042 12 0 0.0 0.0 0.00 0.00 0.00 90 1013.3
20260510101605 12 0 0.0 0.0 0.00 0.00 0.00 90 1013.4
20260510101046 12 0 0.0 0.0 0.00 0.00 0.00 90 1013.5
20260510100545 12 0 0.0 0.0 0.00 0.00 0.00 90 1013.6
20260510100050 12 0 0.0 4.8 0.00 0.00 0.00 90 1013.5
20260510095545 12 0 0.0 4.8 0.00 0.00 0.00 90 1013.4
20260510095044 12 0 0.0 4.8 0.00 0.00 0.00 90 1013.2
20260510094553 12 0 0.0 0.0 0.00 0.00 0.00 89 1013.1
20260510094044 12 0 0.0 0.0 0.00 0.00 0.00 89 1012.9
20260510093544 12 0 0.0 0.0 0.00 0.00 0.00 89 1012.9
20260510093051 12 0 0.0 0.0 0.00 0.00 0.00 89 1012.9
20260510092542 12 0 0.0 0.0 0.00 0.00 0.00 89 1012.9
20260510092042 12 0 0.0 0.0 0.00 0.00 0.00 88 1012.8
20260510091553 12 0 0.0 0.0 0.00 0.00 0.00 88 1012.8
20260510091042 12 0 0.0 1.6 0.00 0.00 0.00 88 1012.8
20260510090600 12 0 0.0 1.6 0.00 0.00 0.00 88 1012.7
20260510090052 12 0 0.0 0.0 0.00 0.00 0.00 88 1012.6
20260510085542 12 0 0.0 0.0 0.00 0.00 0.00 88 1012.5
20260510085042 12 0 0.0 0.0 0.00 0.00 0.00 88 1012.5
20260510084552 12 0 0.0 0.0 0.00 0.00 0.00 88 1012.4
20260510084045 12 0 0.0 0.0 0.00 0.00 0.00 88 1012.4
20260510083544 12 0 0.0 0.0 0.00 0.00 0.00 88 1012.2
20260510083055 12 0 0.0 0.0 0.00 0.00 0.00 88 1012.2
20260510082542 12 0 0.0 0.0 0.00 0.00 0.00 88 1012.2
20260510082042 12 0 0.0 0.0 0.00 0.00 0.00 88 1012.2
20260510081557 12 0 0.0 0.0 0.00 0.00 0.00 88 1012.2
20260510081042 12 0 0.0 0.0 0.00 0.00 0.00 88 1012.1
20260510080541 12 0 0.0 0.0 0.00 0.00 0.00 88 1012.1
20260510080050 12 0 0.0 0.0 0.00 0.00 0.00 88 1012.1
20260510075545 12 0 0.0 3.2 0.00 0.00 0.00 88 1012.1
20260510075042 12 0 0.0 3.2 0.00 0.00 0.00 88 1011.9
20260510074556 12 0 0.0 0.0 0.00 0.00 0.00 88 1012.0
20260510074045 12 0 0.0 0.0 0.00 0.00 0.00 88 1011.9
20260510073544 12 0 0.0 0.0 0.00 0.00 0.00 88 1011.9
20260510073103 12 0 0.0 0.0 0.00 0.00 0.00 88 1011.9
20260510072541 12 0 0.0 0.0 0.00 0.00 0.00 88 1011.9
20260510072045 12 0 0.0 0.0 0.00 0.00 0.00 88 1011.9
20260510071559 12 0 0.0 0.0 0.00 0.00 0.00 88 1011.8
20260510071044 13 0 0.0 0.0 0.00 0.00 0.00 88 1011.9
20260510070544 13 0 0.0 0.0 0.00 0.00 0.00 88 1011.9
20260510070052 13 0 0.0 0.0 0.00 0.00 0.00 87 1011.9
20260510065542 13 0 0.0 0.0 0.00 0.00 0.00 87 1011.9
20260510065046 13 0 0.0 0.0 0.00 0.00 0.00 88 1011.9
20260510064548 13 0 0.0 0.0 0.00 0.00 0.00 87 1012.0
20260510064042 13 0 0.0 0.0 0.00 0.00 0.00 87 1011.9
20260510063542 13 0 0.0 0.0 0.00 0.00 0.00 87 1012.0
20260510063049 13 0 0.0 0.0 0.00 0.00 0.00 87 1012.0
20260510062545 13 0 0.0 0.0 0.00 0.00 0.00 87 1012.0
20260510062044 13 0 0.0 0.0 0.00 0.00 0.00 87 1011.9
20260510061602 13 0 0.0 0.0 0.00 0.00 0.00 87 1012.0
20260510061045 13 0 0.0 0.0 0.00 0.00 0.00 87 1012.0
20260510060547 13 0 0.0 0.0 0.00 0.00 0.00 86 1012.0
20260510060051 13 0 0.0 0.0 0.00 0.00 0.00 86 1012.1
20260510055544 13 0 0.0 0.0 0.00 0.00 0.00 86 1012.1
20260510055043 13 0 0.0 0.0 0.00 0.00 0.00 86 1012.0
20260510054600 13 0 0.0 0.0 0.00 0.00 0.00 86 1012.1
20260510054043 13 0 0.0 0.0 0.00 0.00 0.00 86 1012.0
20260510053542 13 0 0.0 0.0 0.00 0.00 0.00 86 1012.0
20260510053052 13 0 0.0 0.0 0.00 0.00 0.00 85 1012.0
20260510052544 13 0 0.0 0.0 0.00 0.00 0.00 85 1012.1
20260510052043 13 0 0.0 0.0 0.00 0.00 0.00 85 1012.1
20260510051554 13 0 0.0 0.0 0.00 0.00 0.00 84 1012.2
20260510051042 13 0 0.0 0.0 0.00 0.00 0.00 84 1012.3
20260510050546 13 0 0.0 0.0 0.00 0.00 0.00 84 1012.3
20260510050055 13 0 0.0 0.0 0.00 0.00 0.00 84 1012.2
20260510045545 14 0 0.0 0.0 0.00 0.00 0.00 84 1012.2
20260510045044 14 0 0.0 0.0 0.00 0.00 0.00 84 1012.3
20260510044553 14 0 0.0 0.0 0.00 0.00 0.00 84 1012.3
20260510044044 14 0 0.0 0.0 0.00 0.00 0.00 84 1012.4
20260510043544 14 0 0.0 0.0 0.00 0.00 0.00 83 1012.5
20260510043056 14 0 0.0 0.0 0.00 0.00 0.00 83 1012.5
20260510042546 14 0 0.0 0.0 0.00 0.00 0.00 83 1012.5
20260510042042 15 0 0.0 0.0 0.00 0.00 0.00 83 1012.5
20260510041605 15 0 0.0 0.0 0.00 0.00 0.00 82 1012.5
20260510041043 15 0 0.0 0.0 0.00 0.00 0.00 81 1012.4
20260510040545 15 0 0.0 0.0 0.00 0.00 0.00 81 1012.4
20260510040053 15 0 0.0 0.0 0.00 0.00 0.00 81 1012.5
20260510035541 15 0 0.0 0.0 0.00 0.00 0.00 80 1012.4
20260510035045 15 0 0.0 0.0 0.00 0.00 0.00 79 1012.5
20260510034555 15 0 0.0 0.0 0.00 0.00 0.00 79 1012.5
20260510034043 15 0 0.0 0.0 0.00 0.00 0.00 79 1012.4
20260510033544 15 0 0.0 0.0 0.00 0.00 0.00 79 1012.5
20260510033055 15 0 0.0 0.0 0.00 0.00 0.00 79 1012.3
20260510032544 16 0 0.0 0.0 0.00 0.00 0.00 78 1012.3
20260510032046 16 0 0.0 0.0 0.00 0.00 0.00 78 1012.3
20260510031553 16 0 0.0 0.0 0.00 0.00 0.00 78 1012.3
20260510031048 16 0 0.0 0.0 0.00 0.00 0.00 78 1012.3
20260510030544 16 0 0.0 0.0 0.00 0.00 0.00 77 1012.3
20260510030050 16 0 0.0 0.0 0.00 0.00 0.00 77 1012.2
20260510025544 16 0 0.0 1.6 0.00 0.00 0.00 77 1012.2
20260510025041 16 0 0.0 3.2 0.00 0.00 0.00 77 1012.1
20260510024606 16 0 0.0 3.2 0.00 0.00 0.00 77 1012.2
20260510024045 16 0 0.0 1.6 0.00 0.00 0.00 76 1012.1
20260510023544 16 0 0.0 0.0 0.00 0.00 0.00 76 1012.0
20260510023055 16 0 0.0 0.0 0.00 0.00 0.00 76 1012.1
20260510022542 16 0 0.0 0.0 0.00 0.00 0.00 75 1011.9
20260510022045 16 0 0.0 0.0 0.00 0.00 0.00 75 1011.8
20260510021547 16 0 0.0 0.0 0.00 0.00 0.00 75 1011.7
20260510021041 16 0 0.0 0.0 0.00 0.00 0.00 75 1011.6
20260510020544 16 0 0.0 0.0 0.00 0.00 0.00 74 1011.6
20260510020053 17 0 0.0 0.0 0.00 0.00 0.00 74 1011.5
20260510015543 17 0 0.0 0.0 0.00 0.00 0.00 74 1011.5
20260510015044 17 0 0.0 0.0 0.00 0.00 0.00 74 1011.5
20260510014610 17 0 0.0 4.8 0.00 0.00 0.00 73 1011.4
20260510014044 17 0 0.0 4.8 0.00 0.00 0.00 73 1011.3
20260510013545 17 0 0.0 4.8 0.00 0.00 0.00 73 1011.3
20260510013101 17 0 0.0 0.0 0.00 0.00 0.00 72 1011.2
20260510012548 17 0 0.0 0.0 0.00 0.00 0.00 72 1011.1
20260510012045 17 0 0.0 0.0 0.00 0.00 0.00 72 1011.0
20260510011550 17 0 0.0 0.0 0.00 0.00 0.00 72 1010.9
20260510011048 17 0 0.0 0.0 0.00 0.00 0.00 71 1011.0
20260510010544 17 0 0.0 0.0 0.00 0.00 0.00 71 1010.8
20260510010053 17 0 0.0 0.0 0.00 0.00 0.00 70 1010.8
20260510005545 18 0 0.0 0.0 0.00 0.00 0.00 70 1010.7
20260510005047 18 0 0.0 1.6 0.00 0.00 0.00 69 1010.7
20260510004555 18 0 0.0 1.6 0.00 0.00 0.00 69 1010.7
20260510004044 18 0 0.0 1.6 0.00 0.00 0.00 69 1010.6
20260510003541 18 0 0.0 1.6 0.00 0.00 0.00 68 1010.6
20260510003052 18 0 0.0 0.0 0.00 0.00 0.00 68 1010.5
20260510002543 18 0 0.0 0.0 0.00 0.00 0.00 68 1010.4
20260510002045 18 0 0.0 0.0 0.00 0.00 0.00 67 1010.4
20260510001549 18 0 0.0 0.0 0.00 0.00 0.00 67 1010.3
20260510001045 19 0 0.0 0.0 0.00 0.00 0.00 67 1010.2
20260510000545 19 0 0.0 0.0 0.00 0.00 0.00 67 1010.2
20260510000052 19 0 0.0 6.4 0.00 0.00 0.00 66 1010.2
20260509235544 19 0 0.0 6.4 0.00 0.00 0.00 66 1010.1
20260509235047 19 0 0.0 0.0 0.00 0.00 0.00 65 1010.1
20260509234551 19 0 0.0 12.9 0.00 0.00 0.00 65 1010.1
20260509234041 20 0 0.0 12.9 0.00 0.00 0.00 65 1010.1
20260509233545 20 0 0.0 3.2 0.00 0.00 0.00 64 1010.0
20260509233053 20 0 0.0 12.9 0.00 0.00 0.00 64 1010.1
20260509232544 20 0 0.0 12.9 0.00 0.00 0.00 64 1010.0
20260509232044 20 0 0.0 4.8 0.00 0.00 0.00 64 1010.0
20260509231600 20 0 0.0 9.7 0.00 0.00 0.00 63 1010.3
20260509231045 20 0 0.0 9.7 0.00 0.00 0.00 63 1010.2
20260509230547 20 0 0.0 6.4 0.00 0.00 0.00 62 1010.1
20260509230052 20 0 0.0 6.4 0.00 0.00 0.00 62 1010.1
20260509225545 20 0 0.0 4.8 0.00 0.00 0.00 62 1010.0
20260509225044 20 0 0.0 0.0 0.00 0.00 0.00 62 1010.0
20260509224549 20 0 0.0 20.9 0.00 0.00 0.00 62 1010.0
20260509224045 20 0 0.0 20.9 0.00 0.00 0.00 61 1010.0
20260509223546 20 207 1.6 20.9 0.00 0.00 0.00 61 1010.0
20260509223054 20 0 0.0 0.0 0.00 0.00 0.00 63 1010.0
20260509222547 20 0 0.0 0.0 0.00 0.00 0.00 62 1010.0
20260509222045 20 0 0.0 0.0 0.00 0.00 0.00 61 1009.9
20260509221548 20 0 0.0 3.2 0.00 0.00 0.00 62 1009.9
20260509221043 20 0 0.0 3.2 0.00 0.00 0.00 61 1009.9
20260509220543 20 0 0.0 3.2 0.00 0.00 0.00 61 1009.9
20260509220048 20 0 0.0 0.0 0.00 0.00 0.00 63 1009.9
20260509215547 20 0 0.0 0.0 0.00 0.00 0.00 62 1009.9
20260509215044 20 0 0.0 0.0 0.00 0.00 0.00 64 1009.9
20260509214549 20 0 0.0 1.6 0.00 0.00 0.00 63 1010.1
20260509214048 20 0 0.0 8.0 0.00 0.00 0.00 64 1010.1
20260509213544 20 0 0.0 8.0 0.00 0.00 0.00 65 1010.1
20260509213055 20 0 0.0 11.3 0.00 0.00 0.00 63 1010.1
20260509212545 20 0 0.0 11.3 0.00 0.00 0.00 62 1010.0
20260509212045 20 0 0.0 3.2 0.00 0.00 0.00 63 1010.2
20260509211558 20 0 0.0 0.0 0.00 0.00 0.00 68 1010.1
20260509211042 20 0 0.0 0.0 0.00 0.00 0.00 65 1010.1
20260509210545 21 0 0.0 11.3 0.00 0.00 0.00 64 1010.2
20260509210054 20 0 0.0 11.3 0.00 0.00 0.00 63 1010.1
20260509205544 21 0 0.0 14.5 0.00 0.00 0.00 62 1010.2
20260509205044 21 0 0.0 14.5 0.00 0.00 0.00 63 1010.2